Wind_Speed
23 21 20 20 16 16 17 15 15 19 21 18 18 16 14 13 11 10 9 8 8 7 7 7 6 5 4 3 2 2 2 3 4 5 6 7 8 9 8 7 7 6 4 3 3 3 3 3 4 4 3 3 3 3 3 4 4 5 5 5 5 6 5 4 5 6 8 8 9 10 11 12 14 14 13 14 15 16 17 17 17 17 17 17 17
16 18 20 19 17 18 19 18 18 20 21 21 20 18 17 16 15 14 12 11 10 10 9 8 7 7 6 6 6 5 6 6 6 6 7 8 9 10 11 11 11 10 10 9 8 7 7 6 7 7 7 7 7 6 6 7 7 8 8 9 9 9 9 9 8 7 8 10 10 10 11 13 14 15 14 14 15 16 17 18 18 18 18 19 20
11 13 17 19 20 23 24 24 24 23 23 23 23 22 20 20 18 17 15 14 13 12 11 10 8 7 6 6 6 6 6 6 6 6 7 9 10 11 13 14 15 16 15 14 13 12 11 11 10 10 10 10 10 10 10 11 11 11 12 12 13 13 13 13 13 12 12 13 13 13 13 13 14 14 14 15 16 16 17 19 20 20 20 21 21
11 12 15 18 20 23 26 28 29 27 24 25 27 27 25 24 23 21 19 18 18 16 15 14 12 9 8 7 6 6 6 7 8 8 8 10 12 13 15 18 20 20 20 19 18 16 15 14 13 13 12 13 13 14 15 15 15 15 16 17 17 18 18 18 18 17 16 16 17 17 17 17 17 16 14 14 15 16 17 18 19 21 22 23 23
11 12 14 16 18 23 27 29 29 28 25 26 29 30 27 27 27 26 24 23 21 21 21 19 16 14 11 10 9 9 10 10 10 10 12 13 15 16 18 21 22 22 21 21 20 19 18 17 16 15 15 15 16 17 17 18 18 18 20 21 22 23 24 24 23 22 21 21 20 20 20 20 21 21 19 17 16 16 17 18 20 20 21 23 24
12 13 14 15 19 24 28 28 27 27 27 25 27 28 26 27 29 30 31 29 25 25 26 23 20 18 14 12 11 11 11 10 10 11 14 15 17 18 20 22 23 22 20 20 20 20 20 20 19 18 17 17 18 18 18 19 19 20 21 22 24 25 26 26 26 26 26 26 25 24 24 23 23 23 23 22 20 19 18 18 19 20 21 22 23
14 16 17 17 21 25 29 30 30 30 28 25 27 26 25 26 30 32 34 33 30 29 29 25 23 20 15 12 10 10 11 12 13 14 15 16 17 19 19 21 22 22 20 19 20 20 20 21 21 19 18 18 18 19 20 19 19 20 22 23 24 25 26 27 28 28 28 28 28 27 27 27 26 25 25 25 25 24 23 20 19 20 21 22 23
16 18 19 20 22 24 28 31 33 30 25 23 25 26 25 26 30 34 37 38 36 35 30 26 25 21 14 10 9 10 14 16 16 15 16 17 18 18 18 18 19 21 22 23 21 20 19 19 19 19 19 20 20 22 23 23 22 22 24 25 25 25 27 28 29 29 29 29 29 29 29 29 29 28 27 27 27 27 27 26 23 22 22 23 25
15 18 21 23 24 23 25 28 29 24 21 24 26 26 25 25 27 31 34 32 30 29 25 20 18 16 12 8 7 11 15 17 18 17 17 17 16 16 16 16 17 19 21 25 27 26 22 19 20 21 22 22 23 24 25 26 25 25 26 27 26 26 28 29 30 31 31 31 31 31 31 31 31 31 30 29 28 28 28 29 28 27 25 24 25
14 16 20 22 23 24 25 26 23 17 19 25 25 19 16 15 16 20 21 17 14 14 13 10 9 9 8 7 8 11 13 14 15 15 16 16 15 14 15 16 17 17 18 21 26 30 29 27 27 27 26 25 24 25 25 26 27 27 28 28 28 27 29 31 32 33 33 33 33 33 32 31 32 32 31 30 30 30 30 31 31 31 31 28 26
15 15 15 15 15 19 21 21 20 17 18 19 16 10 8 9 9 12 16 14 11 10 8 8 9 8 8 8 10 11 11 11 11 12 14 15 15 16 17 18 18 18 19 19 21 25 29 32 33 32 30 28 27 27 27 28 28 28 29 31 30 29 31 33 33 34 34 34 34 34 34 33 32 32 33 32 32 31 32 33 33 33 33 33 31
15 14 16 16 15 14 14 16 18 18 16 14 12 10 10 9 9 11 13 11 11 11 9 9 11 11 9 9 11 12 12 13 13 14 16 17 18 20 21 22 22 23 24 24 24 25 27 30 33 34 32 30 29 30 29 29 29 30 31 32 32 31 32 33 33 34 36 36 35 35 36 36 34 33 34 34 33 33 34 34 35 35 34 35 35
18 18 20 22 19 15 15 17 18 18 17 15 14 13 13 12 12 13 13 11 11 12 11 11 13 13 11 10 11 12 14 15 17 19 21 22 24 25 25 26 27 28 29 30 30 30 30 30 32 31 31 31 32 33 32 30 30 31 32 33 33 33 34 35 35 36 37 38 38 37 38 38 37 36 36 36 36 36 37 37 37 38 37 37 37
21 20 19 19 18 17 18 19 19 18 17 16 16 15 15 15 14 14 15 14 13 12 12 13 13 12 11 11 13 15 17 20 22 23 24 25 25 26 26 27 27 28 29 30 30 30 30 31 31 30 30 32 33 35 35 33 31 31 31 32 33 34 35 36 37 38 39 40 40 41 40 39 38 38 38 39 40 40 40 40 39 39 39 39 39
23 21 19 18 18 18 18 18 17 16 16 16 17 17 17 16 15 15 14 14 13 13 14 14 13 13 15 17 19 21 22 23 23 23 23 23 24 24 25 25 25 25 26 27 27 28 28 28 29 30 30 31 31 32 33 32 32 31 31 33 34 36 37 38 39 40 41 42 42 42 41 39 38 38 39 40 42 42 43 43 43 43 43 42 41
26 24 22 20 20 19 18 18 18 17 17 18 18 18 17 16 15 15 14 15 16 17 17 18 18 19 21 23 24 24 23 22 22 23 24 24 24 25 25 25 25 25 25 26 26 27 27 27 28 28 29 30 30 30 31 30 30 30 32 36 38 40 41 41 41 42 42 43 44 44 43 41 39 39 40 41 42 44 45 45 45 46 47 46 44
28 27 24 23 22 22 21 20 19 19 19 19 19 18 18 18 18 18 20 21 22 23 24 24 25 25 26 26 25 24 23 23 23 23 24 24 25 25 26 26 26 26 26 26 26 26 26 26 26 26 27 27 28 29 31 31 31 32 35 38 40 41 42 43 43 43 44 44 45 45 44 42 40 40 41 41 42 44 45 46 45 45 46 46 45
31 29 27 26 24 23 22 21 20 20 19 20 20 20 20 20 21 22 24 25 25 26 26 26 26 26 26 25 24 24 24 24 24 24 25 25 25 26 26 27 27 27 27 27 27 27 27 26 26 26 26 27 28 29 31 32 33 34 36 38 39 41 43 44 45 46 45 45 46 45 44 42 41 41 41 42 43 43 44 44 44 44 44 44 44
34 33 31 30 27 24 23 23 22 22 22 22 22 22 22 22 23 23 24 25 25 25 25 25 25 25 24 23 22 22 22 22 23 24 25 26 26 27 28 28 29 29 29 29 29 29 29 29 29 29 29 29 30 31 32 33 34 35 36 38 39 41 43 44 45 46 46 45 44 43 42 41 40 40 41 42 43 43 44 44 44 44 44 43 44
33 34 32 30 28 26 24 24 24 24 25 25 24 24 23 23 23 24 24 25 25 25 25 25 24 23 23 22 22 21 22 22 23 24 25 26 27 28 28 29 30 30 30 31 31 31 30 30 30 31 31 31 31 32 33 34 35 36 37 39 40 41 43 44 45 45 44 44 43 42 41 40 40 41 42 43 44 44 44 44 43 43 44 43 43
30 31 30 29 29 27 24 22 23 24 25 25 25 25 25 25 24 25 25 26 26 26 26 25 25 24 24 24 24 24 25 25 26 27 28 28 28 28 29 29 30 30 31 31 31 31 31 31 31 31 32 32 33 33 34 35 36 37 38 39 40 42 42 43 43 43 42 42 42 41 41 42 43 44 44 45 45 45 45 45 44 44 44 44 44
31 31 33 33 33 31 28 24 23 24 25 26 25 26 26 26 25 25 26 26 27 27 26 26 25 25 25 25 26 27 28 29 29 30 30 31 30 30 29 29 29 30 30 30 31 31 32 33 33 34 34 34 35 35 36 36 37 38 39 40 41 42 42 42 42 41 41 41 42 42 43 44 44 45 45 46 46 47 47 46 45 45 45 45 45
33 34 35 37 38 38 36 32 28 27 27 27 27 27 27 27 27 27 28 28 29 28 28 27 27 27 27 27 28 29 30 30 31 31 31 31 31 31 31 30 30 30 30 31 31 32 33 34 35 36 37 38 38 39 38 38 38 38 39 40 41 41 41 41 41 41 41 42 43 44 44 45 45 46 46 47 47 47 47 46 45 45 45 45 46
35 34 36 39 40 39 38 37 35 33 31 30 30 29 29 29 29 29 30 30 30 30 29 29 30 30 29 29 29 29 29 30 30 31 31 31 31 31 31 31 31 31 31 32 33 34 35 36 37 38 39 40 40 40 40 39 38 38 38 40 40 41 41 41 41 42 43 43 44 45 45 45 46 46 46 46 46 46 46 45 45 45 46 47 48
37 35 36 39 41 40 39 38 38 37 36 35 34 33 32 31 31 31 31 32 32 32 32 32 32 31 30 29 29 28 28 28 29 29 29 29 29 29 30 30 31 31 32 33 35 36 36 37 38 38 38 39 39 38 37 36 36 36 38 39 39 39 39 40 41 42 43 43 44 45 45 45 45 45 45 45 46 46 46 47 47 48 49 50 51
43 40 38 39 41 42 42 41 41 41 40 38 37 36 34 33 32 33 33 33 34 34 34 33 33 33 32 30 29 28 27 27 27 27 27 27 28 29 30 31 31 32 33 34 35 36 36 37 37 37 37 36 36 35 34 34 35 35 36 37 37 38 38 39 40 41 42 43 43 44 44 43 44 44 45 45 46 48 49 50 50 51 52 53 53
48 47 45 44 43 43 43 43 43 43 42 41 40 38 37 36 36 36 36 37 36 35 34 34 34 34 33 30 28 27 27 27 28 27 27 27 28 29 29 30 31 31 32 33 34 35 35 35 35 35 34 33 33 32 32 33 33 33 34 35 35 36 37 38 39 40 41 42 42 42 43 43 44 45 46 48 49 50 51 52 53 54 54 54 55
51 50 50 50 48 47 45 44 44 44 44 43 41 39 39 38 38 38 39 39 38 36 36 36 35 33 30 28 27 28 28 29 29 29 29 28 28 28 28 27 28 29 29 31 32 32 33 33 33 32 32 31 30 30 30 30 30 31 32 33 34 35 36 37 38 39 40 41 41 42 43 45 46 47 49 50 51 51 51 52 53 53 53 53 53
48 49 50 50 50 50 48 47 46 44 43 42 40 39 40 40 39 39 39 39 38 38 39 37 34 31 29 28 27 27 27 28 30 31 30 28 26 26 26 26 27 27 28 29 30 31 32 32 32 31 29 27 27 26 26 27 27 28 30 31 33 34 34 35 37 38 39 41 42 44 45 46 47 48 49 50 50 50 50 50 50 49 48 48 48
44 45 46 46 47 47 48 47 47 46 44 42 41 41 41 40 39 39 40 40 41 41 40 36 32 29 28 27 27 27 27 28 29 29 28 26 26 26 26 27 27 27 27 28 29 30 29 28 26 25 24 23 23 24 24 25 26 28 29 30 31 32 33 34 36 38 40 41 43 44 45 46 47 48 48 49 49 48 46 44 43 42 41 41 41
43 44 45 45 44 44 45 46 46 46 46 44 44 45 44 43 42 41 41 41 41 40 37 33 30 29 28 28 28 29 29 28 28 27 26 25 26 27 27 27 27 27 27 26 25 23 21 20 20 21 21 21 21 22 23 25 26 27 27 28 29 31 33 34 37 38 40 41 41 42 43 44 45 46 45 45 44 42 38 36 34 34 34 35 35
43 43 44 46 46 45 46 47 47 47 46 45 43 44 44 43 42 42 42 41 38 36 34 32 31 31 31 31 31 30 29 28 26 25 25 25 26 27 28 27 26 25 23 21 18 16 16 17 18 19 19 20 21 22 24 25 25 25 25 26 28 30 32 34 36 37 38 39 39 40 40 41 41 41 39 38 36 33 30 28 27 27 27 27 26
43 42 43 46 48 48 48 48 48 48 47 46 45 43 41 39 38 38 37 35 33 32 33 33 32 32 32 32 31 30 27 26 25 24 24 25 25 26 25 23 19 17 16 14 14 15 16 17 18 19 20 20 21 22 22 22 22 23 24 26 28 29 31 33 34 35 36 36 37 37 37 37 36 34 32 30 28 26 23 21 21 21 21 21 21
44 43 43 44 47 50 51 50 49 48 47 46 46 46 44 42 39 35 31 28 29 31 33 33 34 34 33 31 29 27 25 24 24 23 23 23 22 21 19 15 12 11 11 13 14 15 16 17 18 19 19 19 19 19 18 19 20 22 24 25 27 29 30 32 32 33 33 33 33 33 33 31 29 27 25 23 21 19 18 18 19 19 20 21 21
43 44 44 44 45 47 50 52 52 50 48 45 44 45 44 42 40 36 31 30 31 33 34 35 35 34 33 30 27 25 24 23 22 22 21 20 18 16 13 10 10 11 13 15 15 16 16 17 17 17 17 16 16 16 17 18 19 21 23 24 26 27 29 30 30 31 31 31 30 30 28 26 24 23 22 19 17 17 18 18 19 20 20 21 22
41 42 43 44 44 44 46 49 52 53 52 48 45 43 41 39 37 35 33 33 35 35 35 35 34 33 31 28 25 24 24 23 21 20 19 17 15 13 10 10 12 14 15 15 15 15 15 15 15 14 14 13 14 14 15 16 18 20 22 24 25 27 28 29 30 31 31 30 29 27 25 23 22 21 20 18 18 19 19 18 18 19 20 21 23
39 39 40 41 42 42 43 45 47 50 52 51 49 44 40 37 35 34 34 36 36 36 34 33 32 30 28 26 24 23 22 20 18 16 15 15 13 12 13 14 15 16 15 14 14 14 14 14 13 12 12 12 13 13 14 15 17 19 21 23 25 27 28 30 31 32 31 30 28 26 23 22 21 21 20 20 20 19 17 16 18 20 21 22 24
33 36 37 38 38 39 40 41 43 44 45 47 48 45 41 38 35 35 36 37 35 33 31 30 28 27 25 23 21 19 17 16 14 14 14 13 12 14 16 16 16 15 14 13 13 13 12 11 10 11 11 11 11 12 13 14 17 19 21 23 24 26 28 30 31 31 30 28 26 23 21 20 20 20 20 20 20 17 15 16 20 22 21 21 23
28 29 31 33 35 36 36 37 39 40 40 40 41 42 41 40 38 38 37 35 31 29 28 26 24 23 21 20 19 17 16 14 13 13 13 13 14 16 17 15 14 13 12 12 12 11 10 10 10 10 10 9 10 11 12 14 17 19 21 22 23 25 28 29 30 29 28 25 23 20 19 18 18 18 18 18 17 15 14 16 20 22 21 20 20
24 25 26 27 30 31 32 33 35 36 37 35 35 37 39 39 38 37 35 30 27 26 24 22 20 20 20 19 18 18 17 14 12 12 13 15 16 16 15 13 12 12 11 11 9 9 9 10 9 9 9 8 9 10 12 14 17 19 20 22 23 24 27 29 29 28 26 23 20 18 17 17 17 16 16 16 16 16 16 18 20 21 20 19 18
17 20 22 25 26 26 28 30 31 32 33 32 31 32 33 33 33 32 29 26 24 23 21 19 19 18 18 17 17 18 17 15 14 14 15 16 15 13 11 11 11 10 9 8 8 9 9 9 8 8 8 8 9 11 13 15 16 18 20 21 22 24 26 28 28 27 25 22 19 17 16 16 16 15 15 16 17 18 17 18 19 19 18 18 17
12 14 16 22 26 25 24 26 27 28 28 28 28 29 29 29 28 27 25 24 22 20 18 18 17 16 16 16 16 15 15 14 14 15 15 13 11 10 10 10 10 8 8 8 9 8 7 7 6 7 8 9 10 12 13 15 16 18 20 21 22 23 25 27 27 26 25 22 19 16 15 15 15 15 15 16 18 19 18 17 16 16 16 16 17
5 6 7 13 21 23 20 20 21 21 22 23 25 26 26 25 25 24 23 22 20 19 18 18 18 17 16 15 13 12 12 13 14 14 12 10 9 9 9 9 8 8 8 8 8 6 5 5 6 7 8 10 11 12 14 15 16 18 20 21 22 22 24 26 27 27 25 23 20 17 15 14 14 15 15 17 19 19 17 15 13 13 14 16 17
8 10 12 13 17 18 17 17 18 17 17 18 21 23 23 23 23 23 22 20 20 18 18 17 16 13 12 12 12 12 13 14 13 12 10 9 9 9 9 9 8 7 7 6 5 4 4 5 6 7 9 11 12 13 15 16 18 19 21 22 22 22 22 24 27 27 27 25 23 20 17 16 15 16 16 17 18 18 16 14 12 13 15 17 17
16 16 16 17 18 17 17 19 20 19 17 17 20 21 21 20 21 22 21 20 20 18 17 15 13 12 13 14 14 14 14 13 12 11 10 9 9 9 9 8 7 6 5 3 2 4 5 6 7 8 9 11 13 14 16 18 19 21 22 22 23 22 22 23 25 27 28 27 25 24 21 18 16 16 17 17 17 16 14 12 12 14 15 15 15
18 18 18 18 18 18 18 19 19 18 17 18 19 19 19 18 18 18 18 19 19 18 16 15 15 16 16 15 14 13 13 12 12 12 11 10 10 10 9 8 6 4 2 1 2 4 5 6 7 8 10 11 13 14 16 18 19 21 21 22 23 23 23 23 24 26 27 27 27 26 25 22 19 17 17 16 16 15 14 12 14 16 14 12 14
17 17 16 16 16 16 17 17 17 17 18 18 19 19 19 19 18 18 19 19 19 17 16 16 16 15 14 13 13 12 12 12 12 12 11 10 10 9 7 6 5 3 1 1 2 4 5 6 8 9 10 11 12 14 16 17 19 20 21 21 22 23 24 24 24 25 26 27 27 27 26 26 23 20 18 16 15 14 13 13 15 16 14 12 13
23 21 19 18 16 15 15 15 16 17 18 19 20 21 21 20 20 20 19 18 16 15 15 14 13 13 12 12 12 12 12 13 13 11 10 9 8 7 5 4 3 2 0 1 2 4 5 7 8 9 10 10 12 13 15 16 18 19 20 20 22 23 24 24 24 25 25 26 26 27 27 27 26 24 21 19 16 13 12 12 13 14 14 13 13
25 25 24 23 23 22 21 21 21 20 20 20 20 20 19 18 17 16 14 14 13 13 13 13 12 12 13 13 13 13 13 13 11 9 8 7 6 5 4 3 2 1 1 2 3 4 6 7 9 9 10 10 11 12 14 15 16 17 18 19 20 22 23 24 25 25 26 26 26 26 26 27 27 26 25 22 19 16 14 13 12 13 14 14 13
23 23 23 22 22 22 22 21 20 20 19 19 18 17 16 15 14 13 12 12 12 12 12 13 13 13 13 13 13 13 12 10 8 7 6 5 4 4 3 2 2 2 2 3 4 5 7 8 9 10 10 11 11 12 13 14 15 16 17 18 19 21 23 25 25 26 26 26 26 25 26 26 27 27 26 25 23 20 17 15 14 13 14 14 13
19 19 19 19 19 19 18 17 16 15 15 15 15 14 14 14 13 13 13 13 13 13 13 13 13 13 12 12 12 10 9 8 7 6 5 4 3 3 2 2 2 3 4 4 5 6 7 9 9 10 11 12 12 12 13 13 14 15 16 17 19 20 22 24 25 25 26 26 26 27 26 26 27 27 27 25 24 23 21 18 15 14 13 13 13
Wind_Direction
272 268 272 269 260 245 227 221 218 204 204 207 194 191 205 209 205 200 197 203 202 198 201 204 213 229 233 233 231 241 280 315 328 333 338 340 339 334 326 322 318 311 305 294 288 297 296 299 303 303 304 305 308 322 331 328 321 320 320 317 317 314 311 321 334 333 326 319 309 303 300 295 293 293 291 290 289 288 287 285 282 281 279 280 280
264 261 260 255 238 227 231 235 228 210 200 200 194 194 210 218 215 211 208 212 215 218 220 222 230 235 238 246 251 260 272 282 293 304 316 322 325 324 316 313 312 307 299 289 278 272 270 272 279 282 284 287 291 293 293 292 291 292 294 294 292 289 286 284 283 286 299 308 309 309 308 302 296 294 293 291 288 286 285 284 283 281 278 276 275
255 250 245 240 229 225 233 240 235 217 201 202 202 200 210 220 222 218 212 209 214 219 222 225 232 230 223 230 243 255 265 270 273 286 308 314 314 312 307 302 302 302 300 294 285 275 269 267 267 271 275 279 284 288 287 286 286 288 288 288 288 286 284 283 281 279 281 290 295 296 300 302 299 297 294 291 289 286 284 282 281 281 280 278 276
254 248 243 239 232 227 230 236 236 224 209 208 210 208 209 217 224 225 220 216 215 216 218 216 214 214 217 222 229 235 243 249 256 270 287 295 296 298 298 294 291 291 293 294 290 284 278 274 271 270 273 276 281 284 285 285 287 289 291 292 292 293 292 291 289 288 286 287 292 293 294 295 294 295 295 293 290 287 284 281 278 277 277 277 276
256 252 249 245 238 232 227 228 232 229 220 217 218 218 217 217 223 228 229 229 225 222 223 218 210 209 212 216 221 220 228 241 251 266 279 286 291 293 294 289 281 276 279 284 285 284 281 279 276 276 276 277 280 281 282 284 286 289 292 294 296 297 298 297 296 296 295 294 295 298 298 297 295 294 293 292 292 290 288 285 282 277 273 273 273
250 249 246 238 231 228 225 226 229 228 224 225 229 233 234 229 227 230 233 234 232 233 233 226 218 218 214 213 225 229 232 244 255 268 280 285 289 290 289 284 274 264 263 268 272 275 277 278 277 277 277 277 278 279 280 283 286 289 292 293 295 296 297 297 297 298 300 299 299 299 299 298 297 295 294 292 291 289 287 284 283 281 278 274 273
240 240 238 230 223 223 222 222 223 220 219 225 233 242 250 244 237 237 235 232 231 231 232 231 229 230 225 212 218 235 247 261 270 276 282 285 286 284 279 276 271 259 248 250 259 264 268 273 275 275 276 276 278 280 281 284 288 293 295 295 295 297 299 299 298 297 298 298 298 297 297 296 296 295 295 294 294 294 291 285 279 277 278 277 275
235 234 235 234 232 231 228 223 221 220 219 226 237 248 257 252 245 244 238 235 234 231 231 236 233 236 245 234 231 256 269 276 281 281 284 284 280 275 271 270 270 261 246 241 248 256 259 264 270 275 278 280 282 286 289 292 295 297 298 297 298 301 303 303 302 301 299 297 296 296 296 296 296 295 295 294 295 296 295 293 289 282 278 276 276
239 235 236 237 234 234 235 228 224 226 227 232 245 258 262 254 251 252 245 240 243 241 243 251 245 246 270 280 275 283 282 281 281 281 283 281 274 274 278 280 279 273 258 246 245 249 253 261 271 278 281 281 284 288 292 295 296 297 298 298 299 303 305 305 305 305 302 300 298 296 296 295 294 294 293 293 294 294 293 294 294 291 286 281 278
251 249 248 245 235 232 233 227 226 241 248 247 253 262 264 258 257 261 255 248 250 249 250 261 254 252 270 271 263 269 273 276 279 280 281 278 275 280 286 287 286 284 277 264 255 252 254 262 273 279 280 280 282 286 288 289 291 293 295 295 297 301 303 303 304 304 303 302 299 297 296 294 292 291 292 293 294 295 294 293 292 292 290 287 282
260 259 258 255 241 235 234 229 233 251 261 262 264 258 254 263 266 266 266 257 244 241 242 241 235 235 240 242 249 259 268 279 283 281 279 277 277 280 282 284 284 282 281 277 269 261 257 261 269 273 275 277 280 282 282 283 287 290 291 292 295 297 299 300 301 301 301 300 299 298 295 292 290 289 290 291 292 293 294 293 293 291 290 289 286
254 251 248 243 232 223 227 228 233 242 248 254 256 240 233 246 252 258 265 254 238 243 246 231 230 240 242 241 253 266 274 277 275 273 271 269 270 272 274 277 278 278 277 276 272 267 263 263 266 268 272 275 277 278 280 283 285 286 287 290 293 294 294 295 296 297 297 297 297 296 294 291 290 289 289 289 289 290 290 291 291 291 290 289 287
243 243 244 244 238 226 223 224 225 231 233 233 233 230 229 233 241 249 254 248 241 243 237 227 237 252 253 244 249 258 261 262 263 263 264 265 267 268 270 271 271 272 274 274 272 271 270 269 269 271 273 275 276 277 279 281 282 282 285 289 292 292 291 290 292 293 293 294 294 294 292 290 289 289 290 290 290 289 288 288 288 288 288 288 287
240 240 242 244 243 238 234 232 232 231 228 225 227 231 234 238 242 245 247 248 247 243 238 240 248 253 247 240 246 252 257 261 263 265 266 267 269 269 270 270 270 270 271 271 272 271 272 273 273 274 273 274 276 278 278 278 280 283 286 288 289 289 288 288 288 289 290 291 292 293 292 290 288 287 288 290 290 290 289 288 287 286 286 286 286
236 234 233 234 237 241 244 245 245 241 233 229 230 233 239 244 247 247 245 244 243 240 240 243 244 241 239 243 251 256 261 264 267 269 271 272 272 272 271 271 271 271 272 272 272 272 272 272 273 274 273 274 277 279 278 278 282 284 285 285 287 288 288 287 287 288 289 291 292 293 293 291 288 287 287 289 290 290 290 290 289 289 287 286 286
234 229 228 229 230 232 235 236 236 234 231 231 233 235 240 243 244 242 239 235 233 233 234 236 236 238 241 246 251 256 260 264 268 272 275 277 278 277 277 276 275 275 275 275 275 275 274 273 273 273 274 276 277 277 276 277 281 282 283 284 286 287 287 289 289 288 289 290 291 292 292 291 291 290 290 290 289 289 290 289 290 289 288 288 286
237 231 228 228 228 227 229 229 230 232 232 233 234 235 235 235 233 231 231 232 234 235 235 236 238 241 246 250 255 259 264 268 272 275 277 279 280 280 280 279 279 280 280 279 279 279 278 277 275 275 277 278 278 277 276 277 278 279 280 282 284 286 288 291 291 291 291 291 291 292 293 293 293 291 290 290 290 290 290 290 289 288 288 287 286
240 238 234 230 227 226 227 227 227 229 229 230 231 231 230 230 230 230 232 234 235 236 238 240 244 247 251 255 259 263 267 271 275 278 279 279 279 278 279 278 279 280 281 281 281 280 279 279 279 279 280 281 282 281 281 280 280 280 281 284 286 288 290 292 292 292 293 292 293 294 295 294 292 290 290 291 292 293 293 292 292 290 288 288 287
239 238 237 232 226 221 221 223 223 224 225 226 228 229 230 231 230 230 231 232 232 235 238 243 247 250 253 256 260 264 269 272 275 277 278 279 279 278 278 278 279 279 280 281 282 282 282 281 281 281 281 281 282 282 283 283 284 285 286 287 288 289 289 290 291 292 292 293 293 293 292 291 289 289 290 292 293 293 293 293 292 291 289 289 289
237 234 231 227 223 218 217 220 222 222 223 225 227 229 231 232 232 231 231 232 234 237 240 244 248 252 256 260 265 269 273 275 277 279 279 279 279 279 279 279 279 279 280 281 282 284 285 285 284 284 283 282 282 282 283 284 286 286 287 287 287 288 288 289 290 291 291 291 289 287 286 286 286 287 289 290 291 292 293 292 291 290 289 288 288
245 242 237 230 225 220 218 222 227 229 229 230 231 233 235 235 235 235 236 238 240 243 246 250 254 258 263 268 272 275 278 280 281 282 281 280 279 279 279 278 278 277 277 278 280 282 283 284 284 285 285 284 284 284 284 285 286 286 286 286 287 288 288 288 289 289 289 289 288 286 286 285 286 287 289 291 292 293 293 292 291 290 290 289 288
256 256 253 247 240 233 226 224 227 234 239 241 240 240 240 240 240 240 241 244 246 249 253 257 262 266 269 273 276 279 281 283 282 281 280 279 278 277 276 275 275 275 275 277 278 279 279 279 280 281 282 283 284 284 284 284 284 284 284 285 286 288 288 289 289 289 289 290 289 288 288 288 288 290 291 292 292 292 292 291 290 290 289 289 289
261 262 259 253 248 244 238 232 228 230 235 241 243 243 241 240 241 242 245 247 250 253 258 262 265 268 270 274 277 280 282 281 279 277 275 274 274 273 273 272 271 272 273 275 277 277 278 278 278 278 279 280 281 282 283 283 283 283 283 285 286 288 288 289 289 289 289 289 289 289 289 290 290 290 291 290 290 289 289 289 288 289 288 288 289
261 261 258 253 247 243 242 241 238 235 232 233 237 241 244 246 248 251 254 256 258 262 266 268 269 270 272 275 279 281 280 277 273 271 270 269 270 270 270 270 270 270 272 273 275 275 276 277 277 278 278 278 278 280 281 282 282 282 283 284 286 287 288 288 288 288 288 289 289 289 290 290 290 289 289 288 288 288 288 288 288 288 288 288 288
260 257 255 252 248 244 243 244 244 243 240 237 237 238 241 245 250 255 259 262 265 269 272 274 275 277 279 282 283 282 277 271 268 267 267 267 268 268 269 270 271 272 273 273 273 274 274 275 276 277 277 277 278 279 279 279 279 280 281 283 285 286 287 287 287 288 288 289 289 289 289 289 289 289 289 289 289 289 289 289 289 289 289 289 288
257 255 252 251 250 249 247 245 244 242 241 240 240 240 240 242 246 252 256 261 265 270 274 277 280 283 285 286 284 278 272 267 265 266 268 269 270 271 272 273 273 273 273 273 273 274 275 276 277 277 278 277 277 277 277 277 277 279 281 283 285 286 286 287 288 289 289 290 290 290 290 290 290 290 291 291 292 293 293 293 292 292 292 292 291
252 252 252 251 251 251 250 249 246 243 240 238 238 239 241 243 247 251 255 260 264 268 274 279 282 283 284 282 277 272 269 270 271 272 273 274 275 276 276 276 275 274 273 273 274 274 275 276 277 277 276 276 276 276 276 276 278 280 282 284 285 287 288 289 290 291 291 291 291 292 293 293 294 295 296 296 296 297 297 296 296 295 295 294 292
252 251 250 251 252 252 251 250 248 246 244 240 239 241 244 247 249 252 256 259 261 267 274 280 281 281 279 276 271 269 271 274 276 276 278 279 280 280 279 278 277 276 275 274 274 274 274 275 276 276 275 275 275 276 276 277 279 280 283 285 287 289 290 291 291 292 293 294 295 297 298 298 299 299 298 298 298 297 297 296 295 294 293 292 291
254 252 251 250 250 251 250 249 248 246 245 242 240 241 244 246 249 253 257 260 264 271 277 279 279 278 277 272 268 268 271 273 274 276 279 280 279 278 278 278 278 278 276 276 276 276 277 277 277 276 276 276 275 276 277 279 282 284 287 289 290 291 292 293 295 296 298 299 300 300 300 300 299 298 298 297 297 296 295 294 293 292 291 290 289
253 252 249 247 247 247 248 248 246 245 244 244 243 244 246 249 251 253 256 260 266 271 274 274 275 275 273 269 267 269 271 272 273 275 276 275 275 276 278 279 279 278 277 277 277 278 278 277 276 275 274 274 275 277 280 284 288 290 290 291 293 295 297 299 300 301 301 301 301 300 300 299 298 298 297 296 296 295 294 293 292 290 289 288 287
251 249 246 242 240 240 241 242 243 244 245 246 245 246 249 251 252 252 254 258 262 266 269 273 274 273 271 270 271 272 273 273 272 271 269 270 272 274 277 278 277 276 275 276 275 273 272 271 270 271 274 276 280 284 288 290 291 290 292 296 299 301 302 302 302 301 301 300 300 299 299 298 297 297 297 296 295 295 294 292 291 290 289 289 289
249 247 243 240 237 236 236 238 238 240 241 242 241 242 244 246 249 252 253 255 258 263 269 272 272 272 274 274 274 275 276 274 270 267 267 268 271 274 277 278 275 271 269 269 267 265 267 270 273 276 281 284 287 289 289 290 291 295 300 303 304 303 303 302 302 301 301 301 301 300 300 299 299 299 298 297 296 297 297 296 294 293 294 296 299
249 246 243 240 236 234 234 236 237 238 238 238 239 240 241 244 248 249 248 248 254 263 269 271 272 274 275 274 273 275 274 270 267 266 266 268 272 277 278 273 266 262 261 260 261 265 270 275 279 282 284 286 286 287 289 293 299 304 307 306 305 304 304 304 305 305 304 304 304 304 303 302 302 301 300 300 301 302 302 301 301 302 304 307 310
247 246 244 241 238 235 234 234 235 237 237 237 239 241 242 245 246 246 247 253 262 269 272 273 275 276 273 270 271 271 269 267 266 265 266 270 274 274 267 253 245 249 256 260 265 270 273 276 279 281 281 282 284 289 296 303 307 308 307 307 308 308 309 309 309 309 309 308 307 307 306 306 305 305 305 306 307 309 309 309 309 309 309 309 309
247 245 243 241 239 237 235 234 234 234 235 237 239 241 244 245 245 246 250 257 264 268 271 272 273 271 268 266 267 266 264 264 263 264 268 269 262 253 245 239 244 254 260 264 270 273 274 275 276 276 278 283 290 298 305 308 308 308 309 311 313 314 314 314 314 314 313 313 312 312 311 311 312 313 313 314 315 315 316 315 315 314 313 312 311
250 248 246 244 241 239 237 236 235 235 235 237 238 241 243 245 246 246 249 254 260 265 268 268 266 263 262 262 261 261 261 260 261 263 263 253 239 236 244 253 258 262 267 270 272 272 271 271 272 276 283 292 298 304 307 308 309 312 316 319 322 322 321 321 321 321 320 319 319 318 318 318 319 319 318 316 316 315 316 318 322 323 322 319 318
250 249 247 246 244 242 239 238 238 237 237 238 240 241 241 242 245 249 251 255 260 263 263 260 258 259 259 258 257 258 257 255 256 255 244 231 231 248 261 261 261 265 268 268 268 267 268 270 275 283 291 297 302 306 310 313 316 322 327 330 330 328 328 329 329 328 326 324 323 322 321 322 323 321 317 315 315 314 316 321 324 324 323 320 319
247 245 244 242 242 240 238 237 237 238 238 238 240 241 241 242 245 248 251 255 258 257 255 253 255 256 254 251 251 250 243 239 242 240 228 226 242 258 260 259 261 263 263 263 263 265 268 274 282 289 294 299 306 312 317 322 327 333 335 336 335 333 333 335 334 332 329 326 324 323 322 323 323 321 319 320 320 319 319 322 320 317 317 317 318
247 245 242 239 238 237 236 234 234 235 236 236 237 238 239 240 242 245 250 252 251 249 248 249 251 249 245 242 241 233 223 224 233 230 226 238 254 257 254 254 255 256 258 260 262 266 274 282 287 292 297 304 313 320 326 333 339 340 340 339 339 338 339 339 338 335 332 329 326 323 322 322 322 322 323 324 322 317 315 315 314 313 314 316 318
246 244 240 236 234 232 230 229 229 230 231 232 232 233 233 234 237 242 245 245 242 242 243 244 244 241 237 235 231 220 215 222 231 231 237 250 255 250 247 247 248 251 254 257 264 274 281 283 287 293 299 308 322 332 339 343 346 345 344 343 343 344 344 344 342 340 338 335 330 325 322 320 321 323 322 318 313 308 308 310 312 314 316 317 317
242 239 234 229 226 224 223 223 224 225 227 227 227 228 229 230 231 234 236 236 235 236 235 234 234 231 226 222 217 213 214 221 229 237 247 251 246 241 243 244 244 246 251 261 273 278 277 279 288 297 305 321 339 345 347 349 350 349 349 349 348 348 349 348 347 346 345 342 336 329 324 322 322 323 320 313 309 307 310 313 315 317 319 321 325
241 237 229 220 215 212 211 214 217 220 221 221 220 222 224 225 224 225 227 227 226 226 226 224 220 214 209 208 209 211 216 223 231 239 245 242 235 238 244 244 244 251 260 267 270 269 271 283 299 310 324 343 352 351 350 352 353 354 356 355 352 352 353 353 353 353 353 350 344 335 328 325 324 324 323 320 316 314 316 321 324 325 328 330 333
211 196 188 197 199 197 198 203 208 210 211 212 213 215 218 219 218 218 219 218 217 219 219 212 203 199 200 203 205 211 219 226 230 234 234 230 232 240 244 244 248 256 258 258 259 265 281 302 318 333 346 353 354 352 351 354 357 0 2 0 357 355 355 356 357 359 1 359 354 344 334 327 326 326 327 326 324 320 319 323 331 336 334 333 334
108 124 127 144 162 170 175 181 182 182 186 194 199 202 205 206 207 209 212 214 215 214 208 199 195 199 203 204 206 213 218 221 223 225 226 230 234 236 237 240 244 246 246 250 262 289 311 325 336 347 354 356 355 352 353 356 1 4 5 3 0 359 357 357 359 1 4 6 3 357 346 335 329 327 325 323 323 322 319 320 328 333 330 331 334
93 104 115 127 136 144 154 161 162 161 165 172 177 181 186 191 198 203 208 210 207 200 192 189 196 206 209 209 211 211 209 209 216 222 227 229 227 224 225 229 229 231 238 256 306 326 331 335 340 349 356 358 355 354 355 358 2 5 5 2 2 2 1 360 1 3 5 8 9 6 359 349 338 331 327 325 327 328 324 318 320 325 327 334 341
94 101 109 116 121 125 132 142 149 153 156 160 165 169 175 183 192 196 196 192 187 183 183 189 198 203 205 206 205 200 197 203 213 220 221 219 213 211 213 215 214 217 231 303 344 340 336 334 338 347 357 359 355 354 357 360 3 5 4 1 1 3 3 2 2 3 5 8 11 11 7 2 354 343 335 332 334 335 329 318 315 319 327 341 349
90 98 104 111 119 126 132 138 146 152 155 159 166 172 174 176 176 173 171 172 174 178 185 191 193 195 196 195 192 191 196 204 210 210 208 204 201 200 201 200 198 200 209 353 353 342 333 331 337 347 356 357 355 353 356 0 4 5 2 0 1 3 5 5 4 4 4 6 9 12 11 8 4 357 348 341 338 337 330 319 314 318 328 340 344
83 87 92 98 107 117 127 135 143 149 154 156 158 157 156 155 155 157 162 167 173 178 181 181 180 181 185 188 189 193 198 201 201 198 193 190 189 189 188 187 188 191 208 355 349 335 327 330 338 346 351 353 352 351 355 1 4 2 0 0 1 2 4 7 7 6 5 4 6 9 12 11 9 5 0 354 348 341 332 323 316 316 322 328 330
83 86 89 93 97 101 106 112 116 121 126 129 132 134 136 139 143 149 156 161 166 169 171 172 174 179 184 187 188 191 193 194 190 183 178 179 181 181 181 187 200 224 320 333 328 325 326 332 337 340 343 347 349 349 353 359 2 360 358 359 0 2 4 6 8 9 8 6 4 6 11 12 11 8 5 2 358 352 342 332 323 317 315 315 315
86 89 92 94 96 98 101 104 108 111 114 116 120 125 128 132 137 143 149 155 162 167 171 174 177 179 180 180 181 184 184 181 174 168 169 174 179 183 192 214 247 280 302 312 317 322 327 331 333 334 336 339 342 344 350 356 359 358 357 358 360 3 5 6 6 8 9 8 6 6 9 11 12 10 8 5 3 0 354 343 332 324 319 316 312
77 82 86 89 91 93 96 99 104 110 115 119 124 128 133 138 143 148 154 160 164 167 168 169 169 168 167 169 172 173 170 164 159 160 164 171 184 204 223 247 269 281 291 304 314 319 323 326 327 328 331 334 337 340 346 351 354 356 356 356 359 3 5 5 5 6 8 9 9 9 9 9 10 11 10 7 5 3 1 355 347 336 328 321 316
Height
3102 3103 3103 3104 3107 3109 3110 3112 3113 3114 3117 3119 3121 3122 3124 3125 3125 3126 3126 3127 3127 3128 3129 3129 3130 3131 3132 3133 3133 3134 3134 3134 3134 3134 3135 3135 3135 3135 3135 3135 3135 3135 3135 3134 3134 3134 3133 3133 3133 3133 3132 3132 3132 3131 3131 3131 3130 3130 3130 3130 3129 3129 3129 3129 3128 3128 3127 3126 3126 3125 3124 3123 3122 3122 3122 3121 3120 3119 3119 3118 3118 3118 3117 3117 3117
3101 3101 3101 3103 3105 3108 3109 3111 3112 3114 3115 3118 3119 3121 3123 3124 3124 3124 3125 3126 3126 3127 3128 3128 3129 3130 3131 3131 3132 3132 3133 3133 3133 3134 3134 3134 3134 3134 3135 3135 3134 3134 3134 3134 3134 3133 3133 3132 3132 3132 3132 3131 3131 3131 3130 3130 3129 3129 3129 3128 3128 3128 3128 3128 3128 3127 3127 3126 3125 3124 3123 3122 3121 3121 3120 3120 3119 3118 3117 3117 3116 3116 3115 3115 3114
3101 3100 3100 3100 3102 3105 3107 3109 3110 3112 3113 3115 3117 3118 3120 3122 3123 3123 3124 3124 3125 3126 3126 3127 3128 3129 3129 3130 3130 3131 3131 3132 3132 3133 3133 3133 3133 3134 3134 3134 3134 3133 3133 3133 3133 3132 3132 3132 3131 3131 3131 3130 3130 3130 3130 3129 3128 3128 3127 3127 3127 3126 3126 3126 3126 3126 3126 3125 3124 3123 3122 3121 3119 3119 3119 3118 3118 3117 3116 3115 3114 3114 3113 3113 3112
3100 3099 3099 3099 3101 3103 3104 3105 3106 3109 3111 3112 3114 3115 3116 3118 3120 3121 3121 3122 3123 3124 3124 3125 3126 3127 3128 3128 3129 3129 3130 3130 3131 3131 3132 3132 3132 3132 3132 3132 3132 3132 3131 3131 3131 3131 3130 3130 3130 3129 3129 3129 3129 3128 3128 3128 3127 3127 3126 3126 3125 3125 3124 3124 3124 3123 3123 3123 3122 3121 3120 3119 3117 3117 3117 3116 3116 3115 3114 3114 3113 3112 3111 3110 3110
3099 3098 3098 3098 3100 3101 3101 3101 3103 3107 3109 3109 3110 3112 3114 3116 3117 3118 3118 3119 3120 3121 3122 3122 3123 3123 3124 3125 3126 3127 3128 3128 3129 3130 3130 3130 3130 3130 3130 3130 3130 3129 3129 3129 3129 3129 3128 3128 3128 3128 3127 3127 3126 3126 3126 3126 3125 3125 3124 3124 3123 3122 3122 3121 3121 3121 3120 3120 3119 3118 3117 3116 3115 3114 3114 3114 3114 3113 3112 3111 3111 3110 3109 3108 3107
3098 3098 3097 3097 3098 3098 3099 3100 3101 3104 3106 3107 3108 3109 3111 3113 3114 3115 3116 3115 3116 3117 3119 3120 3120 3120 3120 3122 3123 3125 3126 3127 3128 3128 3128 3128 3128 3128 3128 3127 3126 3127 3127 3127 3127 3127 3126 3126 3126 3126 3125 3124 3124 3123 3123 3123 3123 3123 3122 3121 3121 3120 3119 3119 3118 3118 3117 3116 3116 3115 3114 3113 3112 3111 3110 3110 3110 3110 3111 3110 3108 3107 3107 3106 3105
3096 3096 3096 3096 3096 3096 3097 3098 3099 3100 3102 3103 3105 3107 3109 3110 3111 3112 3112 3112 3113 3114 3115 3117 3119 3119 3118 3118 3120 3123 3124 3125 3126 3126 3126 3126 3125 3125 3124 3124 3123 3123 3124 3124 3124 3124 3124 3124 3124 3124 3123 3122 3122 3121 3121 3121 3121 3120 3120 3119 3118 3118 3117 3116 3115 3114 3114 3113 3112 3112 3111 3110 3109 3109 3108 3106 3106 3105 3106 3106 3106 3105 3104 3103 3102
3094 3094 3095 3095 3095 3095 3095 3096 3097 3097 3099 3101 3103 3105 3105 3106 3107 3108 3107 3107 3108 3110 3112 3114 3115 3117 3117 3116 3118 3121 3122 3123 3123 3123 3124 3123 3123 3122 3121 3121 3120 3120 3121 3121 3121 3122 3122 3122 3122 3122 3122 3121 3120 3119 3119 3118 3118 3118 3117 3116 3116 3115 3114 3113 3112 3111 3110 3109 3108 3108 3108 3107 3106 3105 3104 3103 3103 3102 3101 3101 3101 3102 3101 3100 3099
3092 3092 3093 3093 3093 3094 3094 3095 3096 3097 3099 3100 3101 3102 3103 3104 3105 3105 3104 3105 3106 3108 3110 3112 3112 3114 3115 3115 3116 3118 3119 3120 3121 3121 3121 3120 3120 3119 3119 3119 3118 3118 3119 3119 3119 3119 3119 3120 3120 3120 3120 3119 3118 3117 3116 3116 3115 3115 3114 3113 3112 3112 3110 3109 3108 3107 3106 3105 3104 3104 3104 3103 3102 3101 3100 3100 3099 3099 3098 3096 3096 3096 3096 3097 3096
3089 3089 3089 3089 3089 3091 3092 3093 3094 3096 3097 3099 3099 3100 3100 3101 3103 3104 3103 3104 3106 3106 3108 3109 3111 3112 3113 3113 3115 3117 3118 3118 3118 3118 3117 3117 3117 3117 3117 3117 3117 3117 3117 3117 3117 3117 3117 3118 3118 3117 3117 3116 3116 3115 3114 3113 3112 3111 3110 3109 3109 3109 3107 3105 3104 3103 3102 3102 3101 3100 3100 3099 3098 3097 3096 3096 3095 3094 3093 3093 3092 3091 3091 3091 3092
3086 3086 3086 3086 3087 3088 3090 3092 3093 3094 3096 3097 3097 3098 3098 3098 3100 3101 3101 3102 3104 3105 3105 3106 3108 3110 3111 3112 3114 3115 3115 3115 3115 3115 3115 3115 3115 3115 3115 3115 3115 3115 3115 3114 3115 3115 3115 3115 3114 3114 3113 3113 3112 3111 3110 3110 3109 3108 3107 3106 3106 3105 3104 3102 3101 3100 3099 3098 3098 3097 3096 3095 3095 3093 3092 3092 3091 3090 3089 3088 3087 3087 3086 3085 3086
3083 3084 3084 3084 3085 3087 3089 3090 3092 3093 3093 3093 3094 3096 3096 3096 3097 3098 3098 3100 3102 3103 3103 3105 3107 3108 3108 3109 3111 3112 3112 3112 3112 3112 3112 3113 3113 3113 3113 3113 3112 3112 3112 3112 3112 3112 3112 3111 3111 3110 3110 3109 3109 3108 3107 3107 3106 3105 3104 3103 3103 3102 3101 3099 3098 3096 3096 3095 3094 3093 3092 3091 3090 3090 3089 3088 3088 3087 3086 3084 3083 3082 3081 3080 3080
3080 3081 3082 3082 3084 3086 3087 3088 3089 3089 3090 3091 3092 3093 3094 3095 3095 3096 3097 3098 3099 3100 3101 3103 3104 3105 3105 3106 3108 3109 3110 3110 3110 3110 3110 3110 3110 3110 3110 3110 3109 3109 3109 3108 3108 3108 3108 3107 3107 3106 3106 3105 3105 3104 3103 3103 3103 3102 3101 3100 3099 3098 3097 3096 3095 3094 3092 3092 3091 3090 3088 3087 3086 3085 3084 3083 3083 3082 3081 3081 3080 3078 3077 3076 3075
3078 3079 3079 3080 3081 3083 3084 3084 3084 3085 3087 3089 3090 3091 3091 3092 3093 3094 3094 3095 3095 3097 3098 3100 3101 3101 3102 3104 3105 3106 3107 3107 3107 3107 3107 3106 3106 3106 3106 3106 3106 3106 3105 3105 3104 3104 3104 3103 3103 3102 3102 3101 3101 3100 3099 3099 3099 3098 3098 3096 3095 3094 3093 3092 3091 3090 3089 3088 3087 3086 3085 3084 3082 3081 3080 3078 3077 3076 3075 3075 3075 3074 3073 3072 3071
3077 3077 3077 3078 3079 3080 3081 3082 3082 3083 3085 3087 3087 3088 3089 3089 3090 3091 3091 3092 3092 3094 3095 3096 3097 3099 3100 3102 3103 3103 3104 3104 3104 3103 3103 3103 3103 3103 3103 3102 3102 3102 3101 3101 3100 3100 3100 3100 3099 3098 3098 3098 3097 3096 3096 3095 3095 3095 3094 3092 3091 3090 3088 3088 3087 3086 3085 3084 3082 3081 3081 3080 3078 3077 3076 3074 3072 3071 3069 3069 3068 3067 3066 3066 3066
3074 3075 3075 3076 3077 3078 3079 3080 3081 3082 3083 3084 3085 3086 3087 3087 3087 3088 3089 3090 3091 3092 3093 3094 3096 3097 3098 3099 3100 3100 3101 3101 3100 3100 3100 3100 3100 3099 3099 3099 3098 3098 3097 3097 3096 3096 3096 3096 3095 3095 3094 3094 3094 3093 3092 3092 3091 3091 3089 3088 3087 3085 3084 3083 3083 3082 3081 3079 3078 3077 3076 3075 3074 3073 3071 3070 3068 3066 3064 3063 3063 3061 3059 3059 3059
3070 3071 3072 3073 3074 3075 3077 3078 3079 3080 3081 3082 3083 3084 3085 3085 3086 3087 3088 3088 3089 3090 3091 3092 3094 3095 3095 3096 3097 3097 3097 3097 3097 3097 3097 3097 3097 3096 3096 3095 3094 3094 3093 3093 3093 3092 3092 3091 3091 3091 3090 3090 3090 3089 3088 3087 3087 3086 3085 3084 3082 3081 3080 3079 3078 3077 3076 3075 3073 3072 3071 3070 3069 3068 3066 3065 3063 3062 3060 3058 3057 3056 3054 3052 3052
3067 3067 3068 3069 3070 3072 3073 3075 3076 3077 3079 3080 3080 3081 3082 3083 3084 3085 3086 3086 3087 3088 3089 3090 3091 3091 3092 3093 3093 3093 3094 3094 3094 3094 3094 3093 3093 3093 3092 3091 3091 3090 3090 3089 3089 3088 3088 3088 3087 3087 3086 3086 3085 3084 3084 3083 3082 3082 3081 3080 3078 3077 3076 3074 3073 3072 3071 3070 3068 3067 3065 3064 3063 3062 3061 3059 3058 3057 3055 3053 3051 3050 3048 3047 3046
3063 3063 3064 3065 3066 3067 3069 3071 3072 3074 3075 3076 3077 3078 3079 3080 3081 3082 3083 3083 3084 3084 3085 3086 3087 3087 3088 3089 3089 3090 3090 3091 3091 3090 3090 3090 3089 3089 3088 3088 3087 3086 3086 3085 3085 3084 3084 3083 3083 3083 3082 3082 3081 3080 3079 3079 3078 3077 3076 3075 3074 3073 3071 3070 3068 3067 3066 3064 3063 3062 3060 3059 3058 3056 3056 3054 3053 3052 3050 3048 3046 3044 3043 3042 3040
3060 3060 3060 3061 3062 3063 3065 3067 3069 3070 3071 3073 3074 3075 3076 3077 3078 3079 3079 3080 3080 3081 3081 3082 3082 3083 3084 3085 3086 3086 3086 3086 3087 3086 3086 3086 3086 3085 3084 3084 3083 3083 3082 3081 3080 3080 3079 3079 3078 3078 3077 3077 3077 3076 3075 3074 3073 3072 3071 3070 3069 3068 3067 3065 3064 3063 3061 3059 3058 3057 3056 3054 3053 3052 3051 3050 3048 3047 3046 3044 3042 3039 3037 3036 3035
3060 3059 3059 3060 3060 3060 3061 3063 3065 3066 3068 3069 3070 3071 3073 3073 3074 3075 3076 3076 3077 3077 3077 3078 3079 3080 3080 3081 3081 3081 3082 3082 3082 3082 3082 3082 3081 3081 3081 3080 3080 3079 3078 3077 3077 3076 3075 3075 3074 3073 3073 3072 3072 3071 3071 3070 3069 3068 3066 3065 3064 3063 3062 3060 3059 3057 3056 3054 3053 3052 3050 3049 3048 3046 3045 3044 3042 3041 3039 3038 3036 3034 3032 3030 3029
3057 3058 3058 3058 3058 3058 3058 3059 3061 3062 3064 3065 3067 3068 3069 3070 3071 3072 3072 3073 3073 3074 3074 3075 3076 3076 3077 3077 3077 3077 3077 3078 3078 3078 3078 3077 3077 3077 3076 3076 3076 3075 3074 3073 3073 3072 3071 3071 3070 3069 3069 3068 3067 3067 3066 3065 3064 3063 3062 3060 3059 3058 3056 3055 3053 3052 3051 3049 3048 3046 3045 3043 3042 3041 3039 3038 3036 3035 3033 3032 3030 3029 3027 3025 3023
3053 3053 3054 3054 3055 3055 3055 3055 3056 3058 3059 3060 3062 3063 3065 3066 3067 3068 3069 3070 3070 3071 3071 3072 3072 3073 3073 3073 3073 3073 3073 3074 3074 3073 3073 3073 3073 3072 3072 3071 3071 3071 3070 3069 3069 3068 3067 3066 3066 3065 3064 3063 3063 3062 3061 3060 3059 3058 3057 3056 3054 3053 3051 3050 3048 3047 3046 3044 3043 3041 3040 3038 3037 3035 3034 3032 3031 3029 3028 3026 3025 3023 3021 3020 3018
3047 3048 3049 3049 3050 3050 3051 3051 3052 3053 3054 3055 3057 3058 3060 3061 3062 3064 3064 3065 3066 3066 3067 3068 3068 3068 3069 3069 3069 3069 3069 3069 3069 3069 3068 3068 3068 3068 3067 3067 3066 3066 3066 3065 3064 3063 3062 3061 3061 3060 3059 3058 3058 3057 3056 3055 3054 3053 3052 3050 3049 3048 3046 3045 3044 3042 3041 3039 3037 3036 3034 3033 3031 3030 3028 3026 3025 3023 3022 3020 3019 3017 3016 3014 3012
3041 3042 3044 3044 3045 3046 3046 3047 3048 3049 3050 3051 3052 3053 3055 3057 3058 3059 3059 3060 3061 3062 3062 3062 3063 3063 3064 3064 3064 3064 3064 3064 3064 3064 3064 3063 3063 3063 3063 3062 3062 3061 3061 3060 3059 3058 3057 3056 3055 3055 3054 3053 3052 3052 3051 3050 3049 3048 3047 3046 3045 3043 3042 3041 3039 3037 3036 3034 3032 3030 3029 3028 3026 3024 3022 3020 3018 3016 3015 3013 3012 3011 3009 3007 3005
3033 3035 3037 3038 3039 3040 3040 3042 3043 3044 3045 3046 3047 3049 3051 3052 3053 3054 3055 3056 3056 3057 3057 3058 3058 3058 3059 3059 3059 3060 3060 3060 3059 3059 3059 3059 3058 3058 3058 3058 3057 3056 3055 3054 3053 3053 3052 3051 3050 3049 3048 3048 3047 3047 3047 3046 3045 3044 3043 3042 3041 3039 3038 3036 3034 3033 3031 3029 3027 3025 3023 3022 3020 3018 3016 3014 3011 3009 3007 3005 3004 3002 3001 2998 2997
3025 3027 3029 3031 3033 3034 3035 3036 3038 3039 3040 3041 3042 3044 3045 3047 3049 3050 3051 3052 3053 3053 3054 3054 3054 3054 3055 3055 3055 3055 3055 3055 3055 3054 3054 3054 3054 3053 3053 3053 3052 3051 3050 3049 3049 3048 3047 3046 3045 3044 3044 3043 3043 3043 3042 3042 3041 3041 3040 3038 3037 3035 3033 3032 3030 3027 3025 3023 3021 3019 3017 3015 3013 3011 3009 3006 3004 3002 3000 2997 2995 2993 2991 2989 2987
3017 3019 3022 3024 3025 3027 3029 3030 3032 3033 3034 3035 3036 3037 3039 3041 3044 3045 3047 3048 3049 3050 3050 3050 3050 3050 3051 3051 3051 3051 3051 3051 3050 3049 3049 3049 3049 3048 3048 3047 3047 3046 3046 3045 3044 3043 3043 3042 3041 3041 3040 3040 3039 3039 3039 3038 3038 3037 3036 3034 3033 3031 3029 3027 3025 3023 3020 3018 3016 3013 3011 3009 3006 3004 3001 2999 2997 2995 2993 2990 2987 2985 2983 2980 2978
3009 3011 3013 3016 3018 3020 3022 3024 3025 3027 3028 3029 3030 3032 3033 3036 3038 3040 3042 3043 3044 3045 3045 3045 3045 3046 3046 3046 3047 3047 3047 3046 3045 3045 3044 3044 3044 3044 3043 3043 3042 3042 3041 3041 3040 3039 3039 3038 3037 3037 3037 3036 3036 3036 3036 3035 3035 3034 3032 3031 3029 3027 3025 3023 3020 3018 3015 3013 3010 3007 3005 3002 3000 2997 2995 2992 2990 2988 2985 2983 2980 2978 2975 2972 2970
3001 3003 3005 3008 3010 3013 3014 3016 3018 3020 3022 3024 3025 3027 3029 3031 3033 3035 3037 3038 3039 3040 3041 3041 3041 3041 3042 3042 3042 3043 3043 3042 3041 3041 3041 3040 3040 3039 3039 3039 3038 3038 3037 3037 3036 3035 3035 3034 3034 3034 3034 3034 3033 3033 3033 3032 3032 3031 3029 3027 3025 3023 3021 3018 3015 3013 3010 3008 3005 3002 2999 2996 2993 2991 2988 2985 2983 2981 2979 2976 2973 2971 2968 2966 2964
2995 2996 2998 3001 3003 3005 3007 3008 3011 3013 3016 3018 3019 3021 3023 3025 3028 3030 3032 3033 3035 3035 3036 3036 3037 3037 3038 3038 3038 3038 3038 3038 3038 3037 3037 3036 3036 3035 3035 3035 3035 3034 3034 3033 3032 3032 3031 3031 3031 3031 3031 3031 3031 3030 3030 3029 3028 3027 3026 3024 3021 3019 3016 3014 3011 3009 3006 3003 3000 2997 2994 2990 2987 2985 2982 2979 2977 2975 2973 2970 2968 2965 2962 2961 2959
2987 2989 2992 2994 2996 2998 3000 3002 3004 3007 3010 3012 3014 3015 3017 3019 3022 3024 3026 3028 3029 3030 3031 3032 3032 3033 3033 3034 3034 3034 3033 3033 3034 3034 3033 3033 3032 3032 3032 3032 3031 3031 3030 3030 3029 3029 3029 3029 3029 3029 3029 3029 3028 3028 3027 3026 3025 3024 3022 3020 3018 3015 3013 3010 3008 3005 3001 2998 2995 2992 2989 2985 2982 2979 2976 2974 2971 2969 2967 2965 2963 2961 2959 2957 2956
2980 2982 2984 2987 2989 2992 2994 2996 2998 3000 3003 3006 3008 3010 3012 3014 3017 3019 3020 3021 3024 3025 3026 3027 3028 3029 3029 3029 3029 3029 3029 3030 3030 3030 3030 3029 3029 3029 3028 3028 3028 3027 3027 3027 3027 3027 3027 3027 3027 3027 3027 3027 3026 3025 3025 3023 3022 3020 3018 3017 3015 3012 3010 3006 3003 3000 2996 2993 2989 2986 2983 2980 2977 2974 2971 2969 2966 2965 2963 2961 2960 2958 2956 2955 2954
2972 2974 2977 2979 2982 2985 2987 2990 2992 2994 2997 2999 3002 3005 3007 3010 3012 3014 3015 3017 3019 3021 3022 3023 3024 3024 3025 3025 3025 3026 3026 3026 3026 3026 3026 3026 3026 3026 3025 3025 3025 3025 3025 3025 3025 3025 3025 3026 3026 3025 3025 3025 3024 3023 3022 3020 3019 3017 3016 3014 3011 3009 3006 3002 2999 2995 2992 2989 2985 2982 2978 2975 2972 2969 2967 2965 2963 2962 2960 2959 2957 2956 2954 2953 2952
2965 2967 2969 2971 2974 2977 2980 2983 2986 2988 2991 2994 2996 3000 3003 3005 3007 3010 3012 3014 3015 3017 3018 3019 3019 3020 3021 3021 3022 3022 3022 3022 3023 3023 3023 3023 3023 3023 3023 3023 3023 3023 3023 3023 3023 3024 3024 3024 3024 3024 3023 3022 3021 3020 3019 3018 3017 3015 3013 3011 3008 3005 3002 2998 2995 2992 2988 2984 2981 2977 2974 2971 2968 2966 2963 2962 2961 2959 2958 2957 2955 2954 2952 2951 2949
2959 2960 2962 2964 2967 2969 2973 2976 2979 2982 2985 2988 2991 2995 2998 3000 3003 3005 3008 3010 3012 3013 3014 3015 3015 3016 3017 3018 3018 3018 3018 3019 3019 3020 3020 3021 3021 3021 3020 3021 3021 3021 3021 3021 3022 3022 3022 3022 3022 3021 3021 3020 3019 3018 3017 3016 3015 3013 3010 3007 3004 3001 2998 2995 2991 2987 2984 2980 2976 2973 2970 2968 2965 2963 2961 2960 2959 2958 2957 2955 2954 2952 2950 2948 2947
2952 2953 2956 2958 2960 2963 2966 2969 2972 2975 2979 2982 2986 2989 2992 2995 2999 3002 3004 3006 3008 3009 3010 3011 3012 3012 3013 3014 3014 3015 3015 3016 3016 3017 3018 3018 3018 3018 3018 3018 3018 3019 3019 3020 3020 3020 3020 3020 3019 3019 3018 3018 3017 3016 3015 3014 3012 3010 3007 3004 3001 2998 2995 2991 2987 2983 2979 2975 2972 2970 2967 2965 2963 2961 2960 2959 2958 2956 2955 2953 2952 2951 2949 2947 2945
2944 2946 2949 2951 2954 2957 2960 2963 2966 2969 2973 2976 2980 2984 2987 2991 2995 2997 2999 3002 3004 3005 3006 3007 3008 3009 3010 3010 3011 3012 3012 3013 3014 3015 3016 3016 3016 3016 3016 3016 3016 3017 3017 3018 3018 3018 3018 3018 3017 3017 3017 3016 3016 3015 3013 3012 3009 3006 3004 3001 2999 2996 2992 2988 2984 2980 2976 2972 2969 2967 2965 2963 2962 2960 2959 2957 2956 2955 2954 2952 2951 2949 2948 2946 2944
2939 2941 2943 2945 2948 2950 2954 2957 2961 2964 2968 2971 2975 2979 2983 2987 2990 2993 2995 2998 3000 3001 3002 3004 3005 3006 3006 3007 3008 3009 3010 3011 3012 3013 3014 3014 3014 3014 3014 3014 3015 3015 3016 3016 3016 3016 3016 3016 3016 3016 3015 3015 3014 3013 3011 3009 3006 3004 3002 2999 2997 2994 2990 2986 2982 2978 2974 2970 2967 2965 2963 2962 2960 2959 2958 2956 2955 2953 2952 2951 2949 2948 2946 2945 2943
2935 2937 2938 2940 2942 2945 2949 2952 2956 2959 2963 2967 2971 2975 2979 2982 2986 2989 2992 2994 2996 2998 2999 3001 3002 3002 3003 3004 3005 3007 3008 3009 3010 3011 3012 3011 3011 3011 3012 3012 3013 3014 3014 3014 3014 3014 3014 3014 3014 3014 3014 3013 3012 3011 3009 3007 3005 3002 3000 2997 2995 2992 2988 2984 2980 2976 2972 2969 2966 2964 2962 2960 2959 2958 2957 2955 2954 2952 2951 2949 2948 2946 2944 2943 2941
2932 2933 2934 2936 2939 2942 2945 2948 2952 2956 2960 2964 2968 2972 2975 2979 2982 2985 2988 2991 2993 2995 2996 2997 2998 2999 3000 3002 3003 3004 3006 3007 3008 3009 3009 3009 3009 3010 3010 3011 3011 3012 3012 3013 3013 3013 3013 3013 3013 3013 3012 3012 3010 3008 3007 3005 3003 3001 2998 2995 2993 2990 2987 2983 2979 2975 2971 2968 2965 2963 2961 2959 2958 2956 2955 2954 2952 2951 2949 2948 2947 2945 2943 2941 2939
2930 2930 2931 2933 2935 2939 2943 2946 2950 2953 2957 2961 2965 2969 2973 2977 2980 2983 2985 2988 2990 2992 2994 2995 2996 2997 2998 2999 3001 3002 3004 3005 3006 3006 3007 3007 3008 3009 3009 3010 3010 3010 3011 3011 3012 3012 3012 3012 3012 3012 3011 3010 3008 3007 3006 3004 3002 3000 2997 2994 2991 2989 2986 2983 2979 2975 2971 2967 2964 2962 2960 2959 2957 2956 2954 2953 2951 2949 2948 2947 2945 2943 2942 2940 2938
2929 2930 2930 2931 2934 2938 2943 2946 2949 2953 2956 2960 2963 2967 2971 2974 2978 2980 2983 2985 2987 2990 2991 2993 2994 2995 2997 2998 2999 3001 3002 3003 3004 3004 3005 3006 3007 3007 3008 3008 3009 3010 3010 3011 3011 3011 3011 3011 3010 3010 3009 3008 3007 3006 3005 3003 3001 2998 2995 2993 2990 2988 2985 2982 2979 2975 2971 2967 2964 2961 2959 2958 2956 2955 2953 2951 2950 2948 2947 2945 2944 2942 2941 2939 2938
2932 2932 2932 2934 2936 2940 2943 2946 2950 2953 2956 2959 2962 2965 2969 2973 2976 2978 2981 2983 2985 2988 2989 2991 2993 2994 2995 2997 2999 3000 3001 3002 3002 3003 3004 3005 3006 3007 3007 3008 3008 3009 3009 3010 3010 3010 3010 3009 3009 3009 3008 3007 3006 3005 3003 3001 2999 2996 2994 2991 2989 2987 2984 2982 2978 2975 2971 2967 2964 2961 2959 2957 2955 2954 2952 2950 2949 2947 2946 2944 2943 2942 2940 2939 2937
2937 2937 2937 2938 2940 2943 2945 2948 2951 2954 2956 2959 2961 2965 2968 2972 2975 2977 2979 2982 2984 2986 2988 2990 2992 2993 2995 2996 2998 2999 3000 3000 3001 3002 3003 3004 3005 3006 3006 3007 3007 3008 3008 3008 3008 3008 3008 3008 3008 3007 3006 3005 3004 3003 3002 3000 2997 2995 2992 2991 2989 2986 2984 2981 2978 2975 2971 2967 2964 2961 2959 2956 2954 2953 2951 2949 2947 2946 2945 2944 2943 2941 2940 2938 2937
2942 2942 2943 2944 2945 2947 2948 2951 2953 2956 2958 2960 2963 2966 2969 2972 2974 2976 2979 2981 2983 2985 2987 2989 2991 2993 2994 2995 2996 2997 2999 3000 3001 3002 3003 3003 3004 3005 3005 3006 3006 3007 3007 3007 3007 3007 3007 3007 3007 3006 3005 3004 3003 3002 3001 2998 2996 2994 2992 2990 2988 2986 2983 2980 2977 2975 2971 2968 2965 2962 2959 2956 2954 2952 2950 2948 2946 2945 2944 2943 2942 2941 2939 2938 2937
2947 2947 2947 2948 2949 2950 2952 2954 2956 2958 2960 2962 2965 2967 2969 2972 2974 2976 2978 2981 2983 2985 2987 2989 2990 2992 2993 2994 2995 2997 2998 2999 3000 3001 3002 3003 3003 3004 3004 3005 3005 3005 3005 3006 3006 3006 3006 3006 3005 3004 3004 3003 3002 3001 3000 2998 2995 2993 2992 2990 2988 2985 2983 2980 2977 2974 2972 2969 2965 2962 2959 2957 2954 2952 2949 2948 2946 2944 2943 2942 2941 2940 2939 2938 2936
2952 2952 2952 2952 2953 2954 2955 2957 2959 2960 2962 2964 2966 2968 2970 2972 2975 2977 2979 2981 2983 2985 2987 2988 2990 2991 2993 2994 2995 2996 2997 2998 2999 3000 3001 3002 3002 3003 3003 3004 3004 3004 3004 3005 3005 3005 3005 3005 3004 3003 3003 3002 3002 3001 2999 2997 2995 2993 2992 2990 2988 2985 2983 2980 2977 2974 2971 2969 2966 2963 2960 2957 2954 2952 2949 2947 2945 2944 2943 2942 2940 2939 2938 2937 2936
2958 2958 2958 2958 2958 2959 2960 2961 2962 2964 2965 2967 2969 2971 2972 2974 2976 2978 2980 2982 2984 2985 2987 2988 2990 2991 2992 2993 2995 2996 2997 2998 2999 3000 3000 3001 3001 3002 3003 3003 3003 3004 3004 3004 3004 3004 3004 3004 3003 3003 3002 3001 3001 3000 2998 2997 2995 2993 2992 2990 2988 2985 2983 2980 2977 2974 2972 2969 2966 2964 2961 2958 2955 2952 2950 2947 2945 2943 2942 2940 2939 2938 2937 2936 2935
2965 2965 2965 2965 2965 2965 2966 2967 2968 2969 2970 2971 2973 2974 2975 2977 2979 2980 2982 2983 2985 2986 2987 2989 2990 2991 2992 2993 2994 2995 2996 2997 2998 2999 2999 3000 3001 3001 3002 3002 3003 3003 3003 3003 3003 3003 3003 3002 3002 3002 3001 3001 3000 2999 2998 2996 2994 2993 2991 2990 2988 2985 2982 2980 2977 2974 2972 2969 2967 2964 2961 2958 2956 2953 2950 2948 2945 2943 2941 2940 2938 2937 2936 2935 2934
2970 2970 2970 2970 2970 2970 2971 2971 2972 2973 2974 2975 2976 2977 2978 2979 2980 2982 2983 2984 2985 2986 2988 2989 2990 2991 2992 2993 2994 2995 2996 2997 2997 2998 2999 2999 3000 3000 3001 3001 3002 3002 3002 3002 3002 3002 3002 3001 3001 3001 3000 3000 2999 2998 2997 2995 2994 2992 2991 2989 2987 2984 2982 2980 2977 2975 2972 2970 2967 2964 2961 2959 2956 2954 2951 2949 2946 2944 2941 2939 2937 2936 2935 2934 2933